Overview Statistics Trail Chart Weather Telemetry Raw packets
 

This is the latest recevied weather packets stored in our database for station/object EB2EMZ-3. If no packets are shown the sender has not sent any weather packets the latest 10 day(s).

<< 95 96 97 98 99 100 101 >>
Time Temp. Humidity Pressure Rain* Wind** Luminosity Snow
1787849422 30° C 60% 1010.3 hPa 0 mm - - -
1787849122 30° C 60% 1010.5 hPa 0 mm - - -
1787848822 30° C 60% 1010.5 hPa 0 mm - - -
1787848522 30° C 60% 1010.5 hPa 0 mm - - -
1787848222 30° C 59% 1010.6 hPa 0 mm - - -
1787847922 30° C 60% 1010.5 hPa 0 mm - - -
1787847622 30° C 60% 1010.5 hPa 0 mm - - -
1787847322 30° C 60% 1010.5 hPa 0 mm - - -
1787847022 30.56° C 60% 1010.4 hPa 0 mm - - -
1787846722 30.56° C 59% 1010.6 hPa 0 mm - - -
1787846422 31.67° C 60% 1010.5 hPa 0 mm - - -
1787846122 31.67° C 59% 1010.2 hPa 0 mm - - -
1787845822 31.67° C 60% 1010.3 hPa 0 mm - - -
1787845522 31.11° C 61% 1010.1 hPa 0 mm - - -
1787845222 31.11° C 61% 1010.4 hPa 0 mm - - -
1787844922 31.67° C 60% 1010.4 hPa 0 mm - - -
1787844622 31.67° C 60% 1010.4 hPa 0 mm - - -
1787844322 31.11° C 59% 1010.1 hPa 0 mm - - -
1787844022 31.11° C 59% 1010.3 hPa 0 mm - - -
1787843722 31.11° C 59% 1010.2 hPa 0 mm - - -
1787843422 31.11° C 59% 1010.3 hPa 0 mm - - -
1787843122 31.11° C 59% 1010.2 hPa 0 mm - - -
1787842822 31.11° C 58% 1010.4 hPa 0 mm - - -
1787842522 31.11° C 59% 1010.4 hPa 0 mm - - -
1787842222 30.56° C 62% 1010.5 hPa 0 mm - - -

* Rain latest hour (hover to see other rain measurements)
** Current wind speed in m/s (hover to see current wind gust speed)